User: anonymous   Login
Location: ???? ?????????
(31.1304°N, 31.7111°E)
Time: 12:13:19
(UTC+00:00)
Language:

Cosmos 967 Rocket - Orbit

View from above orbital plane
View from above orbital plane
View from above satellite
View from above satellite

Ground track
Ground track

The orbit data is extracted from the following two-line orbital elements,

1 10513U 77116B   21022.97043123 -.00000080  00000-0  12936-5 0  9993
2 10513  65.8335  96.5478 0017386 120.4162  51.7079 13.78561768169087
Epoch (UTC): 22 January 2021 23:17:25
Eccentricity: 0.0017386
inclination: 65.8335°
perigee height: 956 km
apogee height: 982 km
right ascension of ascending node: 96.5478°
argument of perigee: 120.4162°
revolutions per day: 13.78561768
mean anomaly at epoch: 51.7079°
orbit number at epoch: 16908

The dashed part of the orbit path shows where the satellite is in the earth's shadow,  

DLR